Overview Statistics Trail Chart Weather Telemetry Raw packets
 

This is the latest recevied weather packets stored in our database for station/object KQ4WWD. If no packets are shown the sender has not sent any weather packets the latest 10 day(s).

<< 60 61 62 63 64 65 66 >>
Time Temp. Humidity Pressure Rain* Wind** Luminosity Snow
1788194888 32.22° C 63% 1017.6 hPa 0 mm - 698 W/m² -
1788194584 32.78° C 67% 1017.7 hPa 0 mm - 701 W/m² -
1788194279 32.78° C 65% 1017.6 hPa 0 mm - 532 W/m² -
1788193975 32.22° C 69% 1017.4 hPa 0 mm - 706 W/m² -
1788193674 31.67° C 69% 1017.6 hPa 0 mm - 720 W/m² -
1788193374 31.67° C 71% 1017.6 hPa 0 mm - 729 W/m² -
1788193068 31.67° C 72% 1017.7 hPa 0 mm - 299 W/m² -
1788192778 32.22° C 72% 1018 hPa 0 mm - 746 W/m² -
1788192464 31.67° C 74% 1018.1 hPa 0 mm - 721 W/m² -
1788192159 31.67° C 72% 1018.2 hPa 0 mm - 722 W/m² -
1788191859 32.22° C 73% 1018.2 hPa 0 mm - 719 W/m² -
1788191554 31.67° C 74% 1018.3 hPa 0 mm - 724 W/m² -
1788191250 31.67° C 75% 1018.1 hPa 0 mm - 733 W/m² -
1788190946 31.11° C 77% 1018.2 hPa 0 mm - 763 W/m² -
1788190645 30° C 78% 1018.2 hPa 0 mm - 773 W/m² -
1788190341 30° C 78% 1018.4 hPa 0 mm - 104 W/m² -
1788190036 30.56° C 78% 1018.2 hPa 0 mm - 108 W/m² -
1788189732 30.56° C 78% 1018.3 hPa 0 mm - 369 W/m² -
1788189432 30.56° C 78% 1018.2 hPa 0 mm - 310 W/m² -
1788189126 31.11° C 76% 1017.9 hPa 0 mm - 801 W/m² -
1788188822 30.56° C 78% 1018 hPa 0 mm - 774 W/m² -
1788188517 30.56° C 79% 1017.9 hPa 0 mm - 142 W/m² -
1788188216 30.56° C 77% 1017.8 hPa 0 mm - 740 W/m² -
1788187913 30° C 80% 1018 hPa 0 mm - 714 W/m² -
1788187608 30° C 79% 1017.7 hPa 0 mm - 715 W/m² -

* Rain latest hour (hover to see other rain measurements)
** Current wind speed in m/s (hover to see current wind gust speed)